User: anonymous   Login
Location: Unspecified
(0.0000°N, 0.0000°E)
Time: 02:57:54
(UTC+00:00)
Language:

STARLINK-31306 - Orbit

View from above orbital plane
View from above orbital plane
View from above satellite
View from above satellite

Ground track
Ground track

The orbit is defined by the following mean orbital elements,

1 58876U          26145.49425071 +.00000000 +00000-0 +10965-3 0 00001
2 58876  53.1613 325.4310 0001323  91.6017 268.5135 15.30200386    04
Epoch (UTC): 25 May 2026 11:51:43
Eccentricity: 0.0001323
inclination: 53.1613°
perigee height: 474 km
apogee height: 476 km
right ascension of ascending node: 325.4310°
argument of perigee: 91.6017°
revolutions per day: 15.30200386
mean anomaly at epoch: 268.5135°

The dashed part of the orbit path shows where the satellite is in the earth's shadow,  

DLR